FW9909 Weather Reports


Display with metric or nautical units.
time (UTC)temp
F
wind
direction
speed
MPH
gust
MPH
rain 1hr
in
rain 24hr
in
rain mn
in
humidity
%
barometer
mb
20260905152019 92 317 3.0 6.0 0.00 0.00 0.00 50 1016.5
20260905151017 92 250 3.0 4.0 0.00 0.00 0.00 50 1016.4
20260905150016 91 2 2.0 5.0 0.00 0.00 0.00 52 1016.3
20260905145054 89 295 1.0 3.0 0.00 0.00 0.00 55 1016.2
20260905144052 89 265 2.0 4.0 0.00 0.00 0.00 56 1016.2
20260905143030 88 313 2.0 4.0 0.00 0.00 0.00 56 1016.2
20260905142028 87 341 2.0 4.0 0.00 0.00 0.00 58 1016.1
20260905141026 86 283 1.0 3.0 0.00 0.00 0.00 59 1016.1
20260905140044 85 260 2.0 4.0 0.00 0.00 0.00 61 1016.1
20260905135103 83 281 1.0 4.0 0.00 0.00 0.00 64 1016.1
20260905134041 82 287 2.0 5.0 0.00 0.00 0.00 66 1016.2
20260905133019 81 248 2.0 5.0 0.00 0.00 0.00 68 1016.1
20260905132037 80 230 2.0 4.0 0.00 0.00 0.00 71 1016.0
20260905131035 79 12 3.0 5.0 0.00 0.00 0.00 73 1015.9
20260905130033 77 143 1.0 3.0 0.00 0.00 0.00 75 1015.8
20260905125031 75 135 2.0 4.0 0.00 0.00 0.00 79 1015.7
20260905124029 74 82 2.0 3.0 0.00 0.00 0.00 82 1015.7
20260905123028 73 86 2.0 4.0 0.00 0.00 0.00 82 1015.8
20260905122026 73 75 2.0 3.0 0.00 0.00 0.00 82 1015.5
20260905121044 73 56 1.0 3.0 0.00 0.00 0.00 82 1015.5
20260905120022 73 79 2.0 4.0 0.00 0.00 0.00 81 1015.4
20260905115020 73 106 2.0 4.0 0.00 0.00 0.00 81 1015.4
20260905114038 73 124 2.0 4.0 0.00 0.00 0.00 82 1015.2
20260905113016 73 39 1.0 3.0 0.00 0.00 0.00 82 1015.2
20260905112034 73 20 3.0 6.0 0.00 0.00 0.00 81 1015.0
20260905111033 74 60 2.0 4.0 0.00 0.00 0.00 79 1015.1
20260905110031 74 110 2.0 4.0 0.00 0.00 0.00 78 1015.1
20260905105029 74 74 1.0 4.0 0.00 0.00 0.00 78 1015.1
20260905104027 74 29 4.0 7.0 0.00 0.00 0.00 78 1015.1
20260905103045 75 102 2.0 4.0 0.00 0.00 0.00 78 1015.0
20260905102023 75 77 3.0 4.0 0.00 0.00 0.00 77 1015.2
20260905101041 75 78 1.0 4.0 0.00 0.00 0.00 77 1015.1
20260905100039 75 121 3.0 4.0 0.00 0.00 0.00 77 1015.0
20260905095038 75 76 2.0 4.0 0.00 0.00 0.00 76 1015.0
20260905094036 75 54 2.0 4.0 0.00 0.00 0.00 76 1014.9
20260905093034 75 60 3.0 4.0 0.00 0.00 0.00 77 1014.8
20260905092032 75 68 1.0 2.0 0.00 0.00 0.00 77 1014.8
20260905091030 74 83 1.0 2.0 0.00 0.00 0.00 78 1014.8
20260905090028 75 47 1.0 2.0 0.00 0.00 0.00 78 1014.7
20260905085026 75 50 1.0 2.0 0.00 0.00 0.00 76 1014.7
20260905084024 76 45 1.0 2.0 0.00 0.00 0.00 74 1014.8
20260905083022 76 43 2.0 2.0 0.00 0.00 0.00 74 1014.8
20260905082041 77 47 2.0 3.0 0.00 0.00 0.00 73 1014.6
20260905081019 76 50 1.0 3.0 0.00 0.00 0.00 73 1014.7
20260905080017 77 53 1.0 2.0 0.00 0.00 0.00 73 1014.7
20260905075035 77 82 0.0 2.0 0.00 0.00 0.00 72 1014.8
20260905074033 77 86 1.0 2.0 0.00 0.00 0.00 72 1014.7
20260905073032 77 91 1.0 2.0 0.00 0.00 0.00 72 1014.8
20260905072030 78 101 1.0 2.0 0.00 0.00 0.00 71 1014.8
20260905071028 78 90 1.0 2.0 0.00 0.00 0.00 71 1015.0
20260905070026 77 95 1.0 2.0 0.00 0.00 0.00 72 1015.0
20260905065104 77 37 1.0 2.0 0.00 0.00 0.00 72 1015.1
20260905064022 77 34 1.0 2.0 0.00 0.00 0.00 71 1015.1
20260905063020 78 66 0.0 1.0 0.00 0.00 0.00 70 1015.0
20260905062018 78 22 1.0 2.0 0.00 0.00 0.00 70 1015.1
20260905061016 79 37 1.0 2.0 0.00 0.00 0.00 69 1015.1
20260905060054 79 26 1.0 2.0 0.00 0.00 0.00 68 1015.1
20260905055033 79 65 0.0 2.0 0.00 0.00 0.00 68 1015.2
20260905054031 79 32 0.0 2.0 0.00 0.00 0.00 68 1015.1
20260905053029 80 37 0.0 2.0 0.00 0.00 0.00 67 1015.1
20260905052027 81 18 0.0 2.0 0.00 0.00 0.00 66 1015.1
20260905051025 81 67 0.0 2.0 0.00 0.00 0.00 64 1015.1
20260905050023 81 66 1.0 2.0 0.00 0.00 0.00 63 1015.0
20260905045021 82 24 0.0 1.0 0.00 0.00 0.00 63 1015.0
20260905044019 82 58 1.0 3.0 0.00 0.00 0.00 62 1015.0
20260905043017 82 61 0.0 2.0 0.00 0.00 0.00 61 1015.0
20260905042016 82 56 0.0 2.0 0.00 0.00 0.00 61 1015.1
20260905041034 82 57 1.0 2.0 0.00 0.00 0.00 61 1015.1
20260905040032 82 35 1.0 2.0 0.00 0.00 0.00 61 1015.0
20260905035051 83 29 0.0 2.0 0.00 0.00 0.00 60 1014.9
20260905034028 83 26 1.0 2.0 0.00 0.00 0.00 60 1015.0
20260905033026 83 35 1.0 2.0 0.00 0.00 0.00 59 1014.9
20260905032024 84 11 0.0 2.0 0.00 0.00 0.00 59 1014.9
20260905031022 84 35 1.0 2.0 0.00 0.00 0.00 57 1014.8
20260905030101 85 34 0.0 2.0 0.00 0.00 0.00 56 1014.6
20260905025039 86 27 0.0 2.0 0.00 0.00 0.00 55 1014.5
20260905024017 86 34 0.0 2.0 0.00 0.00 0.00 55 1014.3
20260905023035 86 40 0.0 2.0 0.00 0.00 0.00 54 1014.2
20260905022053 86 50 1.0 2.0 0.00 0.00 0.00 54 1014.0
20260905021031 87 25 0.0 2.0 0.00 0.00 0.00 54 1014.0
20260905020029 87 18 0.0 2.0 0.00 0.00 0.00 53 1013.8
20260905015027 88 35 1.0 2.0 0.00 0.00 0.00 52 1013.9
20260905014026 88 37 0.0 2.0 0.00 0.00 0.00 51 1013.6
20260905013024 88 36 0.0 2.0 0.00 0.00 0.00 51 1013.6
20260905012042 89 25 1.0 2.0 0.00 0.00 0.00 50 1013.5
20260905011020 89 22 0.0 2.0 0.00 0.00 0.00 49 1013.3
20260905010018 90 3 0.0 1.0 0.00 0.00 0.00 48 1013.4
20260905005036 91 28 0.0 2.0 0.00 0.00 0.00 46 1013.3
20260905004054 92 4 0.0 2.0 0.00 0.00 0.00 45 1013.2
20260905003033 92 355 0.0 2.0 0.00 0.00 0.00 44 1013.2
20260905002031 93 332 1.0 2.0 0.00 0.00 0.00 43 1013.3
20260905001029 94 324 1.0 2.0 0.00 0.00 0.00 42 1013.3
20260905000027 95 343 1.0 2.0 0.00 0.00 0.00 40 1013.3
20260904235025 96 313 1.0 3.0 0.00 0.00 0.00 39 1013.3
20260904234144 96 273 2.0 4.0 0.00 0.00 0.00 38 1013.2
20260904233041 97 286 1.0 4.0 0.00 0.00 0.00 38 1013.2
20260904232019 97 282 2.0 6.0 0.00 0.00 0.00 37 1013.3
20260904231018 98 278 3.0 6.0 0.00 0.00 0.00 38 1013.3
20260904230016 97 271 2.0 5.0 0.00 0.00 0.00 37 1013.2
20260904225034 99 257 3.0 6.0 0.00 0.00 0.00 36 1013.2
20260904224052 100 255 5.0 8.0 0.00 0.00 0.00 35 1013.3
20260904223030 101 236 3.0 6.0 0.00 0.00 0.00 35 1013.2
20260904222028 102 226 3.0 6.0 0.00 0.00 0.00 34 1013.4
20260904221026 101 266 3.0 7.0 0.00 0.00 0.00 36 1013.5
20260904220024 102 271 5.0 9.0 0.00 0.00 0.00 34 1013.6
20260904215022 101 266 3.0 9.0 0.00 0.00 0.00 36 1013.5
20260904214041 100 268 4.0 8.0 0.00 0.00 0.00 36 1013.6
20260904213019 101 208 3.0 5.0 0.00 0.00 0.00 36 1013.7
20260904212017 99 259 3.0 8.0 0.00 0.00 0.00 37 1013.7
20260904211055 101 258 2.0 5.0 0.00 0.00 0.00 37 1013.8
20260904210033 101 74 2.0 5.0 0.00 0.00 0.00 36 1013.9
20260904205031 98 144 2.0 6.0 0.00 0.00 0.00 40 1014.2
20260904204030 99 262 2.0 5.0 0.00 0.00 0.00 37 1014.2
20260904203027 100 158 2.0 6.0 0.00 0.00 0.00 36 1014.3
20260904202025 101 239 3.0 6.0 0.00 0.00 0.00 36 1014.4
20260904201024 101 174 2.0 4.0 0.00 0.00 0.00 35 1014.6
20260904200022 101 251 3.0 9.0 0.00 0.00 0.00 36 1014.6
20260904195020 102 261 4.0 6.0 0.00 0.00 0.00 35 1014.7
20260904194018 102 249 3.0 6.0 0.00 0.00 0.00 35 1014.9
20260904193016 102 263 3.0 7.0 0.00 0.00 0.00 35 1014.9
20260904192034 101 266 3.0 6.0 0.00 0.00 0.00 36 1015.0
20260904191033 101 231 4.0 11.0 0.00 0.00 0.00 36 1015.2
20260904190031 102 302 3.0 6.0 0.00 0.00 0.00 36 1015.4
20260904185029 100 319 2.0 4.0 0.00 0.00 0.00 36 1015.5
20260904184027 100 238 5.0 11.0 0.00 0.00 0.00 38 1015.5
20260904183025 99 260 2.0 8.0 0.00 0.00 0.00 39 1015.8
20260904182043 99 258 4.0 7.0 0.00 0.00 0.00 39 1015.9
20260904181041 99 258 3.0 6.0 0.00 0.00 0.00 39 1015.9
20260904180020 98 250 4.0 7.0 0.00 0.00 0.00 39 1016.0
20260904175018 97 254 5.0 10.0 0.00 0.00 0.00 41 1016.2
20260904174015 96 267 3.0 8.0 0.00 0.00 0.00 44 1016.3
20260904173033 96 250 4.0 9.0 0.00 0.00 0.00 44 1016.4
20260904172032 96 257 2.0 5.0 0.00 0.00 0.00 45 1016.5
20260904171050 95 271 5.0 10.0 0.00 0.00 0.00 45 1016.7
20260904170028 95 259 6.0 11.0 0.00 0.00 0.00 45 1016.7
20260904165026 94 240 5.0 9.0 0.00 0.00 0.00 46 1016.6
20260904164045 94 277 2.0 6.0 0.00 0.00 0.00 47 1016.9
20260904163022 94 266 5.0 9.0 0.00 0.00 0.00 47 1016.7
20260904162020 93 247 4.0 8.0 0.00 0.00 0.00 48 1017.0
20260904161019 92 245 3.0 8.0 0.00 0.00 0.00 50 1016.8
20260904160017 93 250 4.0 6.0 0.00 0.00 0.00 49 1016.8
20260904155035 92 229 4.0 8.0 0.00 0.00 0.00 51 1017.0
20260904154113 90 267 4.0 6.0 0.00 0.00 0.00 53 1017.0
20260904153031 90 250 3.0 6.0 0.00 0.00 0.00 53 1017.0